Regional Weather Roundup
Issued by NWS

Home | Current Version | Previous Version | Graphics & Text | Print | Product List | Glossary On
Versions: 1 2 3 4 5 6 7 8 9 10 11 12 13 14 15 16 17 18 19 20 21 22 23 24 25 26 27 28 29 30 31 32 33 34 35 36 37 38 39 40 41 42 43 44 45 46 47 48 49 50
000
ASUS43 KDMX 242107
RWRIA

WEATHER ROUNDUP FOR IOWA
NATIONAL WEATHER SERVICE DES MOINES IA
400 PM CDT SUN MAY 24 2015

NOTE: "FAIR" INDICATES FEW OR NO CLOUDS BELOW 12,000 FEET WITH NO
SIGNIFICANT WEATHER AND/OR OBSTRUCTIONS TO VISIBILITY.

* - THESE STATIONS ARE NOT NWS STATIONS...THUS NOT UNDER NWS
QUALITY CONTROL.  THEY ALSO DO NOT REPORT WEATHER SUCH
AS PRECIPITATION OR FOG.

IAZ001>003-012>014-020>022-031>034-043>046-242200-
   NORTHWEST IOWA

CITY           SKY/WX    TMP DP  RH WIND       PRES   REMARKS
CARROLL *      CLOUDY    64  64 100 S10       29.80F
CHEROKEE *     LGT RAIN  64  63  94 S5        29.80F
DENISON *      CLOUDY    66  66 100 VRB5      29.79S
LE MARS *      CLOUDY    64  61  88 CALM      29.80F
ORANGE CITY *  LGT RAIN  61  59  94 CALM      29.80F
SHELDON *      CLOUDY    63  61  94 E10       29.80F
SIOUX CITY     CLOUDY    66  59  78 CALM      29.80F
SPENCER        CLOUDY    63  61  93 SE8       29.81F
STORM LAKE *   CLOUDY    64  63  94 S8        29.81F
$$

IAZ055>058-069>071-079>083-090>094-242200-
   SOUTHWEST IOWA

CITY           SKY/WX    TMP DP  RH WIND       PRES   REMARKS
ATLANTIC *     CLOUDY    68  64  88 S10       29.81S
AUDUBON *      DRIZZLE   64  61  88 S8        29.82S
CLARINDA *     MOSUNNY   72  64  78 SW9G15    29.82F
COUNCIL BLFS * CLOUDY    68  68 100 SW8       29.81F
CRESTON *      CLOUDY    70  66  88 S14       29.83S
HARLAN  *      CLOUDY    66  66 100 SW8       29.84S
LAMONI         CLOUDY    72  64  76 S12       29.83F
RED OAK *      PTSUNNY   70  64  83 SW12      29.81F
SHENANDOAH *   PTSUNNY   72  66  83 SW8       29.81F
$$

IAZ047>049-059>061-072>074-084-242200-
   CENTRAL IOWA

CITY           SKY/WX    TMP DP  RH WIND       PRES   REMARKS
AMES           CLOUDY    67  64  90 S10       29.82F
ANKENY *       CLOUDY    70  66  88 S8G14     29.82F
CHARITON *     PTSUNNY   72  66  83 SW9       29.83F
DES MOINES     CLOUDY    71  64  78 S12       29.81F
GRINNELL*      DRIZZLE   70  64  83 S12       29.85F
KNOXVILLE *    PTSUNNY   72  64  78 S8        29.82F
MARSHALLTOWN   CLOUDY    66  64  93 SE9       29.84F
PELLA *        LGT RAIN  72  68  88 S6        29.85F
PERRY *        CLOUDY    66  64  94 S13       29.81F
$$

IAZ004>006-015-016-023>025-035-036-242200-
   NORTH CENTRAL IOWA

CITY           SKY/WX    TMP DP  RH WIND       PRES   REMARKS
ALGONA *       CLOUDY    63  59  88 SE12      29.83F FOG
CLARION *      CLOUDY    63  63 100 S16       29.83F FOG
ESTHERVILLE    CLOUDY    60  60 100 SE10      29.82F FOG
FORT DODGE *   CLOUDY    63  61  94 S9        29.82F
MASON CITY     FOG       61  60  97 SE12      29.86F VSB 1
FOREST CITY *  DRIZZLE   59  59 100 SE9       29.85F
IOWA FALLS *   DRIZZLE   63  63 100 SE10      29.86S
$$

IAZ007>011-017>019-026>030-037>042-050>054-066-242200-
   NORTHEAST IOWA

CITY           SKY/WX    TMP DP  RH WIND       PRES   REMARKS
CEDAR RAPIDS   CLOUDY    69  67  93 SE13      29.86F
CHARLES CITY * CLOUDY    61  61 100 SE15      29.88F
CLINTON *      CLOUDY    70  64  83 E9        29.92F
DECORAH *      CLOUDY    59  59 100 SE10G18   29.90F
DUBUQUE        CLOUDY    60  59  96 NE7       29.94F FOG
MONTICELLO *   PTSUNNY   64  64 100 E9G16     29.90F FOG
OELWEIN *      CLOUDY    63  61  94 E14G21    29.88F
WATERLOO       CLOUDY    63  60  90 SE12      29.86F
$$

IAZ064-065-067-068-078-242200-
   EAST CENTRAL IOWA

CITY           SKY/WX    TMP DP  RH WIND       PRES   REMARKS
DAVENPORT      CLOUDY    72  67  84 SW10G18   29.90F
IOWA CITY      PTSUNNY   72  67  84 SE7       29.88F
MT. PLEASANT * PTSUNNY   75  66  73 S15       29.85F
MUSCATINE *    CLOUDY    79  68  69 S10       29.87F HX  81
QUAD CITIES    LGT RAIN  76  69  79 S7        29.88F
$$

IAZ062-063-075>077-085>089-095>099-242200-
   SOUTHEAST IOWA

CITY           SKY/WX    TMP DP  RH WIND       PRES   REMARKS
BURLINGTON     LGT RAIN  76  70  82 S17G25    29.87F
FAIRFIELD *    HVY RAIN  70  66  88 S14       29.87F VSB 1
FORT MADISON * LGT RAIN  73  68  83 S12G18    29.87F
KEOKUK *       PTSUNNY   73  70  88 S12       29.85F
OSKALOOSA *    CLOUDY    72  64  78 S13       29.86S
CENTERVILLE *  LGT RAIN  70  70 100 S9        29.86F
OTTUMWA        CLOUDY    71  66  84 S9        29.85F
WASHINGTON *   CLOUDY    73  68  83 S7        29.88F
$$

ABBREVIATIONS USED IN REMARKS
   TC - TEMPERATURES IN CELSIUS
  WCI - WIND CHILL INDEX
   HX - HEAT INDEX
  VSB - VISIBILITY
$$



USA.gov is the U.S. government's official web portal to all federal, state and local government web resources and services.